{"data":{"norad_id":63786,"epoch":"2026-05-24T22:42:32.297760Z","epoch_age_seconds":93885,"freshness":"FRESH","line1":"1 63786U 25091M   26144.94620715  .00019101  00000+0  70186-3 0  9994","line2":"2 63786  43.0022 341.9585 0002384 246.4875 113.5726 15.27577557 60519","mean_motion":15.27577557,"eccentricity":0.0002384,"inclination_deg":43.0022,"raan_deg":341.9585,"arg_perigee_deg":246.4875,"mean_anomaly_deg":113.5726,"bstar":0.00070186,"rev_number":6051,"period_min":94.266899471082,"perigee_km":481.42070276102,"apogee_km":484.69211977951,"semimajor_km":6861.1934112703,"source":"CELESTRAK","updated_at":"2026-05-25T13:38:20.135051Z"}}